[Iaude] MPEC B35: 2019 AO13 [a=1.20,e=0.13,i=18.6,H=25.5]

mpec at mpcdb1.cfa.harvard.edu mpec at mpcdb1.cfa.harvard.edu
Thu Jan 17 11:25:17 EST 2019


M.P.E.C. 2019-B35                                Issued 2019 Jan. 17, 16:22 UT
 
     The Minor Planet Electronic Circulars contain information on unusual
         minor planets and routine data on comets.  They are published
    on behalf of Division F of the International Astronomical Union by the
          Minor Planet Center, Smithsonian Astrophysical Observatory,
                          Cambridge, MA 02138, U.S.A.

             Prepared using the Tamkin Foundation Computer Network

                              MPC at CFA.HARVARD.EDU
            URL https://www.minorplanetcenter.net/    ISSN 1523-6714


                                   2019 AO13
 
Observations:
     K19A13O* C2019 01 14.47782 09 33 08.254+46 24 09.50         21.0 wUEB035F51
     K19A13O  C2019 01 14.49171 09 32 57.711+46 21 13.19         21.3 wUEB035F51
     K19A13O  C2019 01 14.50562 09 32 47.102+46 18 14.89         20.9 wUEB035F51
     K19A13O  C2019 01 14.51956 09 32 36.522+46 15 16.86         21.4 wUEB035F51
     K19A13O ^C2019 01 15.38371909 23 02.382+43 03 01.23         20.93GVEB035568
     K19A13O ^C2019 01 15.38472509 23 01.676+43 02 47.80         21.02GVEB035568
     K19A13O ^C2019 01 15.38573309 23 00.963+43 02 34.20         20.97GVEB035568
     K19A13O ^C2019 01 15.38675209 23 00.242+43 02 20.45         20.78GVEB035568
     K19A13O  C2019 01 16.45403309 11 37.335+38 46 59.31         20.6 GVEB035F51
     K19A13O  C2019 01 16.45713309 11 35.296+38 46 14.33         20.5 GVEB035F51
     K19A13O  C2019 01 16.46381009 11 30.786+38 44 35.73         21.5 GVEB035F51
     K19A13O  C2019 01 17.32496 09 02 56.14 +35 04 45.9          20.6 GVEB035I52
     K19A13O  C2019 01 17.32593 09 02 55.51 +35 04 31.3          20.2 GVEB035I52
     K19A13O  C2019 01 17.32690 09 02 54.84 +35 04 16.2          20.2 GVEB035I52
 
Observer details:
568 Mauna Kea.  Observers R. Wainscoat, L. Wells, S. Prunet.  Measurers
    R. Weryk, R. Wainscoat.  3.6-m Canada-France-Hawaii Telescope + CCD.
F51 Pan-STARRS 1, Haleakala.  Observers J. Bulger, T. Lowe, A. Schultz,
    M. Willman, K. Chambers, E. Magnier.  Measurers K. Chambers, S. Chastel,
    L. Denneau, J. Fairlamb, H. Flewelling, M. Huber, C.-C. Lin, E. Magnier,
    Y. Ramanjooloo, R. Wainscoat, R. Weryk.  1.8-m Ritchey-Chretien + CCD.
I52 Steward Observatory, Mt. Lemmon Station.  Observer D. C. Fuls.  Measurers
    B. M. Africano, E. J. Christensen, G. A. Farneth, D. C. Fuls, A. R. Gibbs,
    A. D. Grauer, H. Groeller, R. A. Kowalski, S. M. Larson, G. J. Leonard,
    R. L. Seaman, F. C. Shelly.  1.0-m reflector + CCD.
 
Orbital elements:
2019 AO13                                                Earth MOID = 0.0659 AU
Epoch 2019 Apr. 27.0 TT = JDT 2458600.5                 MPC
M  92.52215              (2000.0)            P               Q
n   0.75113674     Peri.  153.33107     -0.08881940     -0.95742561
a   1.1985515      Node   300.60363     +0.84738157     +0.07230496
e   0.1347458      Incl.   18.61021     +0.52350319     -0.27947845
P   1.31           H   25.5           G   0.15           U   7
Residuals in seconds of arc
190114 F51  0.2+  0.5+    190115 568  0.1-  0.1-    190116 F51  0.4+  0.4+
190114 F51  0.2+  0.3+    190115 568  0.1-  0.1-    190117 I52  0.1+  0.3-
190114 F51  0.2-  0.6-    190115 568  0.1-  0.1-    190117 I52  0.0   0.1+
190114 F51  0.1-  0.1-    190116 F51  0.5-  0.6-    190117 I52  0.7-  0.1+
190115 568  0.1-  0.2-    190116 F51  0.2+  0.2+

Ephemeris:
2019 AO13                a,e,i = 1.20, 0.13, 19                  q = 1.0371
Date    TT    R. A. (2000) Decl.     Delta      r     Elong.  Phase     V
2018 12 18    14 29 34.2 +72 05 21   0.1928  1.0377   100.9    68.6    24.4
...
2019 01 02    12 21 14.6 +68 49 33   0.1214  1.0382   113.7    60.1    23.2
...
2019 01 10    10 30 20.7 +58 59 56   0.08679 1.0418   130.4    45.9    22.0
...
2019 01 16    09 16 18.3 +40 37 37   0.06938 1.0460   153.1    25.2    21.0
2019 01 17    09 06 05.3 +36 28 51   0.06782 1.0468   157.8    20.8    20.8
2019 01 18    08 56 31.1 +32 06 29   0.06675 1.0476   162.6    16.3    20.6
...
2019 01 24    08 11 26.9 +05 20 42   0.07122 1.0534   165.7    13.4    20.7
...
2019 02 01    07 35 57.8 -18 03 58   0.09946 1.0629   139.5    37.0    22.1
...
2019 02 16    07 10 26.1 -33 12 48   0.1756  1.0852   119.6    52.3    23.8

A. U. Tomatic                (C) Copyright 2019 MPC           M.P.E.C. 2019-B35



More information about the Iaude mailing list